Regional Weather Roundup
Issued by NWS

Home | Current Version | Previous Version | Text Only | Print | Product List | Glossary Off
Versions: 1 2 3 4 5 6 7 8 9 10 11 12 13 14 15 16 17 18 19 20 21 22 23 24 25 26 27 28 29 30 31 32 33 34 35 36 37 38 39 40 41 42 43 44 45 46 47 48 49 50

000
ASUS43 KLMK 242010
RWRKY
KENTUCKY REGIONAL WEATHER ROUNDUP
NATIONAL WEATHER SERVICE LOUISVILLE KY
400 PM EDT MON APR 24 2017

NOTE "FAIR" INDICATES FEW OR NO CLOUDS BELOW 12,000 FEET
WITH NO SIGNIFICANT WEATHER AND/OR OBSTRUCTIONS TO VISIBILITY.

KYZ001>023-026-027-061>063-070>075-242100-
WESTERN AND SOUTH CENTRAL KENTUCKY

CITY           SKY/WX    TMP DP  RH WIND       PRES   REMARKS
PADUCAH        SUNNY     75  47  36 N5        29.80F
HENDERSON      SUNNY     74  43  32 VRB6      29.82F
OWENSBORO      MOSUNNY   75  49  39 NE8       29.80F
HOPKINSVILLE   PTSUNNY   68  52  56 CALM      29.81F
BOWLING GREEN  CLOUDY    70  55  59 N6        29.81F
GLASGOW        CLOUDY    69  55  60 NE3       29.80F
$$

KYZ024-025-028>034-038-045-046-053-242100-
NORTH CENTRAL KENTUCKY

CITY           SKY/WX    TMP DP  RH WIND       PRES   REMARKS
LOUISVILLE/SDF PTSUNNY   77  49  37 MISG      29.79F
LOUISVILLE/LOU SUNNY     76  51  41 MISG      29.79F
FORT KNOX      PTSUNNY   71  52  50 E9        29.78F
$$

KYZ035>037-039>044-047>052-055>060-089>105-242100-
NORTHEAST KENTUCKY

CITY           SKY/WX    TMP DP  RH WIND       PRES   REMARKS
LEXINGTON      CLOUDY    69  52  54 NE14      29.81F
COVINGTON      PTSUNNY   71  51  49 E20       29.83F
FRANKFORT      PTSUNNY   71  50  47 E12G18    29.79F
$$

KYZ054-064>069-076>088-106>120-242100-
SOUTHEAST KENTUCKY

CITY           SKY/WX    TMP DP  RH WIND       PRES   REMARKS
JACKSON        CLOUDY    61  51  70 MISG      29.83F
LONDON         PTSUNNY   65  51  60 E5        29.80F
SOMERSET       CLOUDY    66  52  59 CALM      29.81F
MIDDLESBORO    CLOUDY    67  56  67 NE8       29.78F
MONTICELLO     PTCLDY    67  56  67 N9G20     29.81F
$$





USA.gov is the U.S. government's official web portal to all federal, state and local government web resources and services.